Home   Weather   Suzhou   Past weeks

Flag for China Past Weather in Suzhou, Jiangsu, China — Yesterday and Last 2 Weeks

Now
59 °F

Sunny.


Feels Like: 58 °F
Forecast: 44 / 61 °F
Wind: 6 mph from North

Location: Shanghai Hongqiao Airport

Current Time: Feb 28, 2017 at 1:48:39 pm

Latest Report: Feb 28, 2017 at 1:00 pm


Visibility: 10 mi

Pressure: 30.21 "Hg

Humidity: 39%

Dew Point: 34 °F

Location of SuzhouLocation

Past Weather in Suzhou — Graph

°F

Suzhou Temperature Yesterday

Maximum temperature yesterday: 59 °F (at 1:00 pm)
Minimum temperature yesterday: 39 °F (at 5:00 am)
Average temperature yesterday: 49 °F

High & Low Weather Summary for the Past Weeks

 TemperatureHumidityPressure
High66 °F (Feb 16, 1:00 pm)94% (Feb 17, 12:00 am)30.60 "Hg (Feb 17, 12:00 am)
Low34 °F (Feb 24, 6:30 am)16% (Feb 14, 3:00 pm)29.80 "Hg (Feb 19, 5:30 pm)
Average48 °F63%30.27 "Hg
* Reported Feb 13 12:00 pm — Feb 28 12:30 pm, Suzhou, Weather by CustomWeather, © 2017

Note: Actual official high and low records may vary slightly from our data, if they occured in-between our weather recording intervals... More about our weather records

Advertising

Suzhou Weather History for the Previous 24 Hours

Scroll right to see more
 ConditionsComfort  
Time TempWeatherWind HumidityBarometerVisibility
12:30 pm
Tue, Feb 28
59 °FPassing clouds.6 mph42%30.24 "HgN/A
12:00 pm57 °FSunny.10 mph41%30.24 "Hg10 mi
11:30 am57 °FSunny.10 mph39%30.27 "Hg10 mi
11:00 am57 °FSunny.13 mph41%30.27 "Hg10 mi
10:30 am55 °FSunny.13 mph41%30.30 "Hg10 mi
10:00 am54 °FSunny.8 mph51%30.30 "Hg10 mi
9:30 am54 °FPassing clouds.8 mph58%30.30 "HgN/A
9:00 am50 °FSunny.8 mph67%30.33 "Hg10 mi
8:30 am48 °FSunny.6 mph71%30.30 "Hg10 mi
8:00 am48 °FSunny.3 mph76%30.30 "Hg10 mi
7:30 am46 °FSunny.3 mph82%30.33 "Hg10 mi
7:00 am45 °FSunny.1 mph81%30.30 "Hg10 mi
6:30 am43 °FSunny.3 mph87%30.30 "Hg10 mi
6:00 am43 °FClear.3 mph87%30.30 "Hg10 mi
5:30 am43 °FClear.3 mph87%30.30 "Hg10 mi
5:00 am43 °FClear.3 mph81%30.30 "Hg10 mi
4:30 am43 °FClear.1 mph81%30.30 "Hg10 mi
4:00 am45 °FClear.6 mph81%30.30 "Hg10 mi
3:30 am43 °FClear.3 mph81%30.30 "Hg10 mi
3:00 am45 °FClear.6 mph76%30.30 "Hg10 mi
2:30 am45 °FClear.6 mph76%30.30 "Hg10 mi
2:00 am43 °FClear.3 mph71%30.33 "Hg10 mi
1:30 am45 °FClear.6 mph66%30.33 "Hg10 mi
1:00 am45 °FClear.6 mph61%30.33 "Hg10 mi
12:30 am46 °FClear.8 mph50%30.33 "Hg10 mi
12:00 am45 °FPassing clouds.6 mph49%30.33 "HgN/A
11:30 pm
Mon, Feb 27
46 °FClear.6 mph50%30.33 "Hg10 mi
11:00 pm46 °FClear.8 mph50%30.33 "Hg10 mi
10:30 pm46 °FClear.6 mph46%30.33 "Hg10 mi
10:00 pm46 °FClear.6 mph46%30.33 "Hg10 mi
9:30 pm46 °FClear.8 mph46%30.36 "Hg10 mi
9:00 pm46 °FClear.3 mph43%30.36 "Hg10 mi
8:30 pm48 °FClear.8 mph40%30.33 "Hg10 mi
8:00 pm48 °FClear.8 mph46%30.33 "Hg10 mi
7:30 pm50 °FClear.8 mph40%30.33 "Hg10 mi
7:00 pm50 °FClear.10 mph40%30.33 "Hg10 mi
6:30 pm52 °FPassing clouds.8 mph32%30.33 "HgN/A
6:00 pm54 °FClear.10 mph28%30.33 "Hg10 mi
5:30 pm55 °FPassing clouds.10 mph28%30.33 "HgN/A
5:00 pm55 °FPassing clouds.8 mph26%30.30 "HgN/A
4:30 pm57 °FPassing clouds.8 mph25%30.30 "HgN/A
4:00 pm57 °FPassing clouds.8 mph23%30.30 "HgN/A
3:30 pm59 °FSunny.6 mph23%30.30 "Hg10 mi
3:00 pm59 °FPassing clouds.6 mph23%30.30 "HgN/A
2:30 pm57 °FPassing clouds.6 mph25%30.30 "HgN/A
2:00 pm59 °FPassing clouds.8 mph25%30.30 "HgN/A
1:30 pm59 °FSunny.1 mph27%30.33 "Hg10 mi
1:00 pm59 °FPassing clouds.6 mph25%30.33 "HgN/A
Weather by CustomWeather, © 2017

See weather overviewHow to use our weather pages